Tracking 19245 objects as of 15-Aug-2018
HD Live streaming from Space Station
objects crossing your sky now

NOAA 16 DEB

Track NOAA 16 DEB now!
10-day predictions


NORAD ID: 41528
Int'l Code: 2000-055NC
Perigee: 828.0 km
Apogee: 866.8 km
Inclination: 98.8 °
Period: 101.7 minutes
Semi major axis: 7218 km
RCS: Unknown
Launch date: September 21, 2000
Source: United States (US)
Launch site: AIR FORCE WESTERN TEST RANGE (AFWTR)

Note: This is SATELLITE DEBRIS
aabbcc
Your satellite tracking list
Your tracking list is empty




NASA's NSSDC Master Catalog

Two Line Element Set (TLE):
1 41528U 00055NC  18225.44112469 +.00001030 +00000-0 +54685-3 0  9994
2 41528 098.7971 291.9171 0026917 242.9469 116.8958 14.15597319123698
Source of the keplerian elements: AFSPC